Yankton, SD

10:51 AM CDT on August 19, 2017 (GMT -0500)
Gurney Municipal

Weather History for KYKN - April, 2013

Change the Weather History Date:

Tuesday, April 23, 2013

  Actual Average Record
Temperature  
Mean Temperature 26 °F -  
Max Temperature 35 °F 63 °F 94 °F (1960)
Min Temperature 17 °F 38 °F 17 °F (2013)
Degree Days  
Heating Degree Days 39    
Moisture  
Dew Point 21 °F    
Average Humidity 75    
Maximum Humidity 93    
Minimum Humidity 60    
Precipitation  
Precipitation 0.00 in - - ()
Sea Level Pressure  
Sea Level Pressure 30.24 in    
Wind  
Wind Speed 13 mph (WNW)    
Max Wind Speed 17 mph    
Max Gust Speed 20 mph    
Visibility 10 miles    
Events      
Averages and records for this station are not official NWS values.
T = Trace of Precipitation, MM = Missing Value Source: NWS Daily Summary

Daily Weather History Graph

Daily Weather History Graph

Search for Another Location

Airport or City:

Trip Planner

Search our weather history database for the weather conditions in past years. The results will help you decide how hot, cold, wet, or windy it might be!

Date:

Astronomy

Apr. 23, 2013 Rise Set
Actual Time 6:34 AM CDT 8:21 PM CDT
Civil Twilight 6:04 AM CDT 8:51 PM CDT
Nautical Twilight 5:27 AM CDT 9:28 PM CDT
Astronomical Twilight 4:48 AM CDT 10:08 PM CDT
Moon 6:15 PM CDT (4/23) 5:06 AM CDT (4/23)
Length of Visible Light 14h 47m
Length of Day
13h 46m
Waxing Gibbous, 94% of the Moon is Illuminated
Apr 23
Waxing Gibbous
Apr 25
Full
May 2
Last Quarter
May 9
New
May 17
First Quarter

Hourly Weather History & Observations

Time (CDT) Temp. Windchill Dew Point Humidity Pressure Visibility Wind Dir Wind Speed Gust Speed Precip Events Conditions
12:15 AM 30.2 °F - 26.6 °F 86% 30.29 in 10.0 mi North - - N/A   Overcast
12:35 AM 30.2 °F - 26.6 °F 86% 30.30 in 10.0 mi North - - N/A   Overcast
12:55 AM 30.2 °F - 24.8 °F 80% 30.31 in 10.0 mi North - - N/A   Overcast
1:15 AM 28.4 °F - 24.8 °F 86% 30.30 in 10.0 mi North - - N/A   Overcast
1:35 AM 28.4 °F - 23.0 °F 80% 30.31 in 10.0 mi North - - N/A   Mostly Cloudy
1:55 AM 28.4 °F - 21.2 °F 74% 30.29 in 10.0 mi North - - N/A   Mostly Cloudy
2:15 AM 28.4 °F - 23.0 °F 80% 30.28 in 10.0 mi North - - N/A   Mostly Cloudy
2:35 AM 28.4 °F 16.6 °F 24.8 °F 86% 30.28 in 10.0 mi NNW 16.1 mph 19.6 mph N/A   Overcast
2:55 AM 28.4 °F 17.0 °F 21.2 °F 74% 30.29 in 10.0 mi NNW 15.0 mph - N/A   Overcast
3:15 AM 28.4 °F 16.2 °F 21.2 °F 74% 30.28 in 10.0 mi NNW 17.3 mph - N/A   Mostly Cloudy
3:35 AM 28.4 °F 16.2 °F 21.2 °F 74% 30.28 in 10.0 mi NNW 17.3 mph - N/A   Mostly Cloudy
3:55 AM 28.4 °F 18.0 °F 21.2 °F 74% 30.28 in 10.0 mi NNW 12.7 mph - N/A   Overcast
4:15 AM 28.4 °F 19.1 °F 23.0 °F 80% 30.27 in 10.0 mi NNW 10.4 mph - N/A   Overcast
4:35 AM 28.4 °F 18.5 °F 21.2 °F 74% 30.29 in 10.0 mi NNW 11.5 mph - N/A   Overcast
4:55 AM 28.4 °F 18.5 °F 21.2 °F 74% 30.28 in 10.0 mi NNW 11.5 mph - N/A   Overcast
5:15 AM 26.6 °F 16.8 °F 21.2 °F 80% 30.29 in 10.0 mi NW 10.4 mph - N/A   Overcast
5:35 AM 26.6 °F 15.2 °F 19.4 °F 74% 30.29 in 10.0 mi WNW 13.8 mph - N/A   Overcast
5:55 AM 24.8 °F 14.0 °F 19.4 °F 80% 30.28 in 10.0 mi NW 11.5 mph - N/A   Overcast
6:15 AM 23.0 °F 11.7 °F 19.4 °F 86% 30.28 in 10.0 mi NW 11.5 mph - N/A   Overcast
6:35 AM 21.2 °F 10.1 °F 15.8 °F 80% 30.28 in 10.0 mi WNW 10.4 mph - N/A   Scattered Clouds
6:55 AM 19.4 °F 7.2 °F 15.8 °F 86% 30.28 in 10.0 mi WNW 11.5 mph - N/A   Clear
7:15 AM 17.6 °F 5.0 °F 14.0 °F 86% 30.28 in 10.0 mi WNW 11.5 mph - N/A   Clear
7:35 AM 17.6 °F 5.7 °F 15.8 °F 93% 30.29 in 10.0 mi WNW 10.4 mph - N/A   Clear
7:55 AM 17.6 °F 5.7 °F 15.8 °F 93% 30.29 in 10.0 mi NW 10.4 mph - N/A   Clear
8:15 AM 17.6 °F 6.4 °F 15.8 °F 93% 30.29 in 10.0 mi NW 9.2 mph - N/A   Clear
8:35 AM 19.4 °F 8.6 °F 15.8 °F 86% 30.29 in 10.0 mi NW 9.2 mph - N/A   Clear
8:55 AM 19.4 °F 7.2 °F 15.8 °F 86% 30.29 in 10.0 mi NW 11.5 mph - N/A   Clear
9:15 AM 19.4 °F 7.9 °F 15.8 °F 86% 30.29 in 10.0 mi NW 10.4 mph - N/A   Clear
9:35 AM 21.2 °F 10.1 °F 15.8 °F 80% 30.29 in 10.0 mi NW 10.4 mph - N/A   Clear
9:55 AM 21.2 °F 8.9 °F 15.8 °F 80% 30.28 in 10.0 mi NW 12.7 mph - N/A   Clear
10:15 AM 21.2 °F 7.3 °F 17.6 °F 86% 30.29 in 10.0 mi NW 16.1 mph - N/A   Clear
10:35 AM 23.0 °F 10.1 °F 17.6 °F 80% 30.28 in 10.0 mi NW 15.0 mph - N/A   Clear
10:55 AM 24.8 °F 11.9 °F 17.6 °F 74% 30.28 in 10.0 mi NW 16.1 mph - N/A   Clear
11:15 AM 24.8 °F 12.4 °F 19.4 °F 80% 30.27 in 10.0 mi NW 15.0 mph - N/A   Clear
11:35 AM 26.6 °F 15.2 °F 19.4 °F 74% 30.28 in 10.0 mi NW 13.8 mph - N/A   Clear
11:55 AM 26.6 °F 14.7 °F 19.4 °F 74% 30.28 in 10.0 mi NW 15.0 mph - N/A   Clear
12:15 PM 26.6 °F 15.7 °F 19.4 °F 74% 30.28 in 10.0 mi NW 12.7 mph - N/A   Clear
12:35 PM 26.6 °F 16.8 °F 19.4 °F 74% 30.26 in 10.0 mi NW 10.4 mph - N/A   Clear
12:55 PM 28.4 °F 18.0 °F 19.4 °F 69% 30.26 in 10.0 mi NW 12.7 mph 17.3 mph N/A   Clear
1:15 PM 28.4 °F 17.0 °F 19.4 °F 69% 30.26 in 10.0 mi NNW 15.0 mph - N/A   Clear
1:35 PM 28.4 °F 17.5 °F 19.4 °F 69% 30.26 in 10.0 mi NNW 13.8 mph - N/A   Clear
1:55 PM 28.4 °F 16.6 °F 19.4 °F 69% 30.25 in 10.0 mi NW 16.1 mph - N/A   Partly Cloudy
2:15 PM 30.2 °F 20.2 °F 19.4 °F 64% 30.24 in 10.0 mi NW 12.7 mph - N/A   Clear
2:35 PM 30.2 °F 19.8 °F 19.4 °F 64% 30.23 in 10.0 mi NW 13.8 mph - N/A   Clear
2:55 PM 30.2 °F 18.9 °F 19.4 °F 64% 30.23 in 10.0 mi NW 16.1 mph - N/A   Clear
3:15 PM 30.2 °F 18.9 °F 19.4 °F 64% 30.22 in 10.0 mi NW 16.1 mph - N/A   Clear
3:35 PM 32.0 °F 20.8 °F 19.4 °F 60% 30.22 in 10.0 mi NW 17.3 mph - N/A   Clear
3:55 PM 32.0 °F 22.1 °F 21.2 °F 64% 30.21 in 10.0 mi NW 13.8 mph - N/A   Clear
4:15 PM 33.8 °F 24.8 °F 21.2 °F 60% 30.21 in 10.0 mi NW 12.7 mph - N/A   Clear
4:35 PM 33.8 °F 23.5 °F 21.2 °F 60% 30.20 in 10.0 mi NW 16.1 mph - N/A   Clear
4:55 PM 33.8 °F 24.3 °F 21.2 °F 60% 30.20 in 10.0 mi NW 13.8 mph - N/A   Clear
5:15 PM 35.6 °F 26.6 °F 24.8 °F 65% 30.20 in 10.0 mi NW 13.8 mph - N/A   Clear
5:35 PM 35.6 °F 27.1 °F 23.0 °F 60% 30.19 in 10.0 mi WNW 12.7 mph - N/A   Partly Cloudy
5:55 PM 35.6 °F 27.1 °F 24.8 °F 65% 30.19 in 10.0 mi NW 12.7 mph 17.3 mph N/A   Partly Cloudy
6:15 PM 35.6 °F 27.5 °F 24.8 °F 65% 30.19 in 10.0 mi WNW 11.5 mph - N/A   Clear
6:35 PM 35.6 °F 28.0 °F 23.0 °F 60% 30.19 in 10.0 mi WNW 10.4 mph - N/A   Clear
6:55 PM 35.6 °F 28.0 °F 24.8 °F 65% 30.18 in 10.0 mi NW 10.4 mph - N/A   Clear
7:15 PM 35.6 °F 29.2 °F 24.8 °F 65% 30.18 in 10.0 mi WNW 8.1 mph - N/A   Clear
7:35 PM 33.8 °F 26.4 °F 24.8 °F 70% 30.17 in 10.0 mi West 9.2 mph - N/A   Clear
7:55 PM 33.8 °F 28.6 °F 24.8 °F 70% 30.17 in 10.0 mi West 5.8 mph - N/A   Clear
8:15 PM 33.8 °F 28.6 °F 24.8 °F 70% 30.17 in 10.0 mi West 5.8 mph - N/A   Clear
8:35 PM 33.8 °F 28.6 °F 24.8 °F 70% 30.17 in 10.0 mi West 5.8 mph - N/A   Clear
8:55 PM 32.0 °F 26.4 °F 23.0 °F 69% 30.17 in 10.0 mi WSW 5.8 mph - N/A   Clear
9:15 PM 30.2 °F 24.3 °F 24.8 °F 80% 30.17 in 10.0 mi WSW 5.8 mph - N/A   Clear
9:35 PM 30.2 °F 24.3 °F 24.8 °F 80% 30.17 in 10.0 mi WSW 5.8 mph - N/A   Clear
9:55 PM 30.2 °F 24.3 °F 24.8 °F 80% 30.18 in 10.0 mi SW 5.8 mph - N/A   Clear
10:15 PM 30.2 °F 23.4 °F 23.0 °F 75% 30.18 in 10.0 mi WSW 6.9 mph - N/A   Clear
10:35 PM 30.2 °F 23.4 °F 24.8 °F 80% 30.17 in 10.0 mi SW 6.9 mph - N/A   Clear
10:55 PM 30.2 °F 23.4 °F 23.0 °F 75% 30.16 in 10.0 mi SW 6.9 mph - N/A   Clear
11:15 PM 30.2 °F 22.6 °F 24.8 °F 80% 30.16 in 10.0 mi WSW 8.1 mph - N/A   Clear
11:35 PM 28.4 °F 20.4 °F 23.0 °F 80% 30.15 in 10.0 mi SW 8.1 mph - N/A   Clear
11:55 PM 28.4 °F 20.4 °F 23.0 °F 80% 30.15 in 10.0 mi SW 8.1 mph - N/A   Clear